User: anonymous   Login
Location: Newark
(44.9861°N, 0.2536°E)
Time: 16:23:55
(UTC+00:00)
Language:

KKS-1 - Orbit

View from above orbital plane
View from above orbital plane
View from above satellite
View from above satellite

Ground track
Ground track

The orbit data is extracted from the following two-line orbital elements,

1 33499U 09002H   20196.44006778  .00000044  00000-0  14399-4 0  9991
2 33499  98.3144  51.9327 0010054  44.9854 315.2167 14.75544021616999
Epoch (UTC): 14 July 2020 10:33:41
Eccentricity: 0.0010054
inclination: 98.3144°
perigee height: 636 km
apogee height: 650 km
right ascension of ascending node: 51.9327°
argument of perigee: 44.9854°
revolutions per day: 14.75544021
mean anomaly at epoch: 315.2167°
orbit number at epoch: 61699

The dashed part of the orbit path shows where the satellite is in the earth's shadow,  

DLR